GW0821 Weather Reports


time (UTC)temp
F
wind
direction
speed
knots
gust
knots
rain 1hr
in
rain 24hr
in
rain mn
in
humidity
%
barometer
mb
20260502220055 56 0 0.0 0.0 0.00 0.00 0.00 77 1018.3
20260502214544 55 0 0.0 0.0 0.00 0.00 0.00 78 1018.4
20260502213045 55 0 0.0 0.0 0.00 0.00 0.00 78 1018.6
20260502211547 55 0 0.0 0.0 0.00 0.00 0.00 79 1018.7
20260502210056 55 0 0.0 0.9 0.00 0.00 0.00 80 1018.7
20260502204547 56 0 0.0 0.0 0.00 0.00 0.00 79 1018.7
20260502203044 56 0 0.9 2.6 0.00 0.00 0.00 78 1018.4
20260502201546 57 0 0.0 0.0 0.00 0.00 0.00 77 1018.2
20260502200051 58 0 0.0 1.7 0.00 0.00 0.00 77 1018.4
20260502194543 58 0 0.0 1.7 0.00 0.00 0.00 75 1018.2
20260502193039 59 0 0.0 3.5 0.00 0.00 0.00 73 1018.3
20260502191550 59 0 0.9 3.5 0.00 0.00 0.00 71 1018.3
20260502190058 60 155 0.9 3.5 0.00 0.00 0.00 69 1018.2
20260502184554 60 226 0.0 4.3 0.00 0.00 0.00 67 1018.0
20260502183050 60 256 0.9 5.2 0.00 0.00 0.00 67 1018.0
20260502181548 61 193 2.6 5.2 0.00 0.00 0.00 65 1017.8
20260502180109 61 225 0.9 4.3 0.00 0.00 0.00 65 1017.7
20260502163042 63 218 2.6 6.1 0.00 0.00 0.00 66 1018.7
20260502161542 64 249 3.5 8.7 0.00 0.00 0.00 64 1018.8
20260502151558 66 226 1.7 5.2 0.00 0.00 0.00 53 1019.0
20260502123058 68 139 4.3 8.7 0.00 0.00 0.00 50 1020.5
20260502121601 67 175 1.7 5.2 0.00 0.00 0.00 56 1020.7
20260502114550 66 222 3.5 8.7 0.00 0.00 0.00 53 1020.8
20260502113054 65 255 1.7 7.0 0.00 0.00 0.00 53 1020.8
20260502111553 64 283 1.7 6.1 0.00 0.00 0.00 54 1021.0
20260502110051 63 273 0.9 4.3 0.00 0.00 0.00 57 1021.3
20260502104552 63 269 1.7 4.3 0.00 0.00 0.00 55 1021.8
20260502103053 64 259 1.7 4.3 0.00 0.00 0.00 50 1021.7
20260502101606 64 0 0.0 0.9 0.00 0.00 0.00 57 1021.6
20260502070040 57 0 0.0 0.9 0.00 0.00 0.00 79 1022.3
20260502064547 56 0 0.0 0.9 0.00 0.00 0.00 80 1022.2
20260502063042 56 0 0.0 0.0 0.00 0.00 0.00 80 1022.2
20260502061543 56 153 0.0 1.7 0.00 0.00 0.00 81 1022.1
20260502060056 56 0 0.0 0.0 0.00 0.00 0.00 80 1022.1
20260502054542 56 0 0.0 0.0 0.00 0.00 0.00 80 1022.0
20260502053055 56 0 0.0 0.0 0.00 0.00 0.00 80 1021.9
20260502051557 56 0 0.0 0.0 0.00 0.00 0.00 80 1021.9
20260502050043 56 0 0.0 0.0 0.00 0.00 0.00 79 1022.0
20260502044543 56 0 0.0 0.0 0.00 0.00 0.00 79 1021.8
20260502043050 56 0 0.0 0.9 0.00 0.00 0.00 79 1021.7
20260502041541 56 0 0.0 0.9 0.00 0.00 0.00 79 1021.7
20260502040050 56 137 0.0 0.0 0.00 0.00 0.00 78 1021.8
20260502034544 56 0 0.0 0.9 0.00 0.00 0.00 78 1021.8
20260502033043 56 0 0.0 0.9 0.00 0.00 0.00 79 1021.8
20260502031548 55 0 0.0 1.7 0.00 0.00 0.00 79 1022.0
20260502030050 55 0 0.0 0.0 0.00 0.00 0.00 79 1022.2
20260502024544 55 0 0.0 1.7 0.00 0.00 0.00 79 1022.2
20260502023043 55 0 0.0 2.6 0.00 0.00 0.00 79 1022.2
20260502021542 55 47 0.0 1.7 0.00 0.00 0.00 78 1022.2
20260502020047 55 0 0.0 5.2 0.00 0.00 0.00 79 1022.3
20260502014549 56 0 0.0 2.6 0.00 0.00 0.00 78 1022.3
20260502013051 55 0 0.0 3.5 0.00 0.00 0.00 79 1022.5
20260502011602 55 0 0.0 2.6 0.00 0.00 0.00 81 1022.6
20260502010045 55 0 0.0 0.9 0.00 0.00 0.00 83 1022.6
20260502004554 54 0 0.0 0.0 0.00 0.00 0.00 83 1022.7
20260502003044 54 0 0.0 0.0 0.00 0.00 0.00 82 1022.9
20260502001543 54 0 0.0 0.0 0.00 0.00 0.00 82 1023.0
20260502000046 54 0 0.0 0.9 0.00 0.00 0.00 82 1023.1
20260501234547 54 0 0.0 0.9 0.00 0.00 0.00 82 1023.2
20260501233044 54 0 0.0 0.9 0.00 0.00 0.00 82 1023.3
20260501231551 54 28 0.0 0.9 0.00 0.00 0.00 81 1023.2
20260501230049 54 0 0.0 0.0 0.00 0.00 0.00 81 1023.2
20260501224558 54 0 0.0 1.7 0.00 0.00 0.00 81 1023.1
20260501223050 55 0 0.0 0.9 0.00 0.00 0.00 80 1023.0
20260501221603 56 0 0.0 0.0 0.00 0.00 0.00 79 1023.0